Regional Weather Roundup
Issued by NWS Cleveland, OH

Home | Current Version | Previous Version | Text Only | Print | Product List | Glossary Off
Versions: 1 2 3 4 5 6 7 8 9 10 11 12 13 14 15 16 17 18 19 20 21 22 23 24 25 26 27 28 29 30 31 32 33 34 35 36 37 38 39 40 41 42 43 44 45 46 47 48 49 50

000
ASUS41 KCLE 251500
RWRCLE
OHIO REGIONAL WEATHER ROUNDUP
NATIONAL WEATHER SERVICE WILMINGTON, OH
1100 AM EDT THU MAY 25 2017

NOTE: "FAIR" INDICATES FEW OR NO CLOUDS BELOW 12,000 FEET WITH NO
SIGNIFICANT WEATHER AND/OR OBSTRUCTIONS TO VISIBILITY.

OHZ001>008-015>018-024>027-034-035-043-044-251600-
   NORTHWEST OHIO

CITY           SKY/WX    TMP DP  RH WIND       PRES   REMARKS
DEFIANCE       LGT RAIN  59  57  93 N7        29.46S FOG
FINDLAY        CLOUDY    66  57  72 E3        29.42S
TOLEDO EXPRESS CLOUDY    62  59  90 N8        29.44F
TOLEDO EXEC    CLOUDY    64  60  87 N9        29.46S
LIMA           PTSUNNY   65  60  84 NE6       29.43S
$$

OHZ009>014-019>023-028>033-038-089-251600-
   NORTHEAST OHIO

CITY           SKY/WX    TMP DP  RH WIND       PRES   REMARKS
CLE-HOPKINS    LGT RAIN  62  58  86 SE5       29.48S
CLE-LAKEFRONT  LGT RAIN  59  56  89 SE8       29.45F
CUY CO. ARPT   CLOUDY    59  57  94 S7        29.47F
LORAIN-ELYRIA  NOT AVBL
ASHTABULA      RAIN      56  54  93 SE6       29.49S FOG
AKRON-CANTON   CLOUDY    60  56  86 E6        29.46F FOG
WOOSTER        CLOUDY    61  55  82 S7        29.46S
MANSFIELD      CLOUDY    61  55  81 SE3       29.45S
YOUNGSTOWN     LGT RAIN  57  54  89 SE8       29.47F
$$

OHZ042-051>053-060>062-070>072-077>081-251600-
  SOUTHWEST OHIO

CITY           SKY/WX    TMP DP  RH WIND       PRES   REMARKS
CINC-COVINGTON LGT RAIN  60  58  92 NW9       29.45R
CINC-LUNKEN    CLOUDY    61  58  90 NW5       29.44R
HAMILTON       CLOUDY    62  11  13 NW6       29.44S
DAYTON         PTSUNNY   63  57  81 CALM      29.44R
WRIGHT-PAT AFB NOT AVBL
DAYTON GENERAL CLOUDY    63  57  81 CALM      29.43R
WILMINGTON     LGT RAIN  60  60 100 S8        29.44R
$$

OHZ036-037-039>041-045>050-054>059-063>069-073>076-082>088-251600-
  CENTRAL AND SOUTHEAST OHIO

CITY           SKY/WX    TMP DP  RH WIND       PRES   REMARKS
COLUMBUS       CLOUDY    60  59  96 S7        29.44S
OSU AIRPORT    CLOUDY    60  59  96 S5        29.44S
BOLTON FIELD   CLOUDY    61  59  94 S9        29.45R
RICKENBACK AFB NOT AVBL
NEWARK         CLOUDY    60  55  83 S8        29.46R
MARION         CLOUDY    61  56  83 S10       29.44F
LANCASTER      CLOUDY    60  56  86 S9        29.46S
ZANESVILLE     CLOUDY    60  54  80 SW9       29.47S
NEW PHILLY     CLOUDY    61  57  87 S5        29.47S
$$




USA.gov is the U.S. government's official web portal to all federal, state and local government web resources and services.